Weather Roundup
Issued by NWS Springfield, MO

Home | Current Version | Previous Version | Text Only | Print | Product List | Glossary On
Versions: 1 2 3 4 5 6 7 8 9 10 11 12 13 14 15 16 17 18 19 20 21 22 23 24 25 26 27 28 29 30 31 32 33 34 35 36 37 38 39 40 41 42 43 44 45 46 47 48 49 50
000
NZUS99 KSGF 190307
HRRSGF

HOURLY WEATHER
NATIONAL WEATHER SERVICE SPRINGFIELD MO
1000 PM CDT SAT APR 18 2015

......SGF CWA......

CITY           SKY/WX    TMP DP  RH WIND       PRES   REMARKS
SPRINGFIELD    CLEAR     57  54  89 CALM      29.83S
JOPLIN         CLEAR     61  57  87 E5        29.82R
WEST PLAINS    CLOUDY    65  55  70 SE3       29.86S
ROLLA          MOCLDY    60  57  89 NE3       29.85S
OSAGE BEACH    CLEAR     59  55  88 CALM      29.85F
BRANSON        CLEAR     59  59 100 CALM      29.85S

......SURROUNDING SGF CWA......

CITY           SKY/WX    TMP DP  RH WIND       PRES   REMARKS
CHANUTE        PTCLDY    62  58  86 E9        29.80F
PARSONS        PTCLDY    63  60  90 VRB3      29.80S
COFFEYVILLE    MOCLDY    63  60  90 E7        29.78S
EMPORIA        LGT RAIN  54  51  90 W13       29.86R FOG
GROVE OK       CLEAR     63  61  94 CALM      29.81S
ROGERS AR      CLEAR     62  56  80 E6        29.83S
SILOAM SPRINGS CLEAR     63  54  72 SE7       29.82F
HARRISON AR    CLEAR     60  59  96 SE6       29.85R
NEAR YELLVILLE PTCLDY    61 N/A N/A CALM      29.83R

......KANSAS AND MISSOURI......

CITY           SKY/WX    TMP DP  RH WIND       PRES   REMARKS
KANSAS CTY INT CLEAR     57  55  93 SE5       29.84S
DOWNTOWN KC    PTCLDY    61  57  87 E5        29.83S
COLUMBIA       CLOUDY    62  55  77 E7        29.86F
SEDALIA        PTCLDY    59  57  93 E5        29.86F FOG
ST JOSEPH      PTCLDY    57  55  93 SE7       29.83F
ST LOUIS       MOCLDY    68  57  68 E6        29.87F
SPIRIT OF STL  MOCLDY    65  57  75 SE3       29.85S
KIRKSVILLE     CLOUDY    59  58  96 SE3       29.86F
WICHITA        TSTM      57  53  86 NE15      29.78F
TOPEKA         PTCLDY    60  57  89 CALM      29.83S
OLATHE         MOCLDY    60  58  92 SE3       29.83S

......TENNESSEE......

CITY           SKY/WX    TMP DP  RH WIND       PRES   REMARKS
MEMPHIS        CLOUDY    68  62  81 E5        29.84F
NASHVILLE      MOCLDY    65  64  97 S5        29.89R

......ARKANSAS.......

CITY           SKY/WX    TMP DP  RH WIND       PRES   REMARKS
FAYETTEVILLE   CLEAR     58  57  97 CALM      29.83R
FT SMITH       CLEAR     66  61  84 E6        29.80R
LITTLE ROCK    CLOUDY    66  62  87 E6        29.82S

......OKLAHOMA.......

CITY           SKY/WX    TMP DP  RH WIND       PRES   REMARKS
TULSA          CLOUDY    69  59  70 S9        29.77R
PONCA CITY     CLOUDY    69  57  65 SE10      29.75R
MCALESTER      CLOUDY    67  61  81 SE5       29.79R
OKLAHOMA CITY  CLOUDY    61  51  70 SE14G20   29.77R

......IOWA............

CITY           SKY/WX    TMP DP  RH WIND       PRES   REMARKS
DES MOINES     CLOUDY    62  59  90 SE3       29.82F
QUAD CITIES    MOCLDY    63  46  54 E15       29.91S

......ILLINOIS........

CITY           SKY/WX    TMP DP  RH WIND       PRES   REMARKS
QUINCY         CLOUDY    64  56  75 NE3       29.87F
CHICAGO        MOCLDY    48  34  58 NE9       30.02F



USA.gov is the U.S. government's official web portal to all federal, state and local government web resources and services.